EHI
0 0 0 0 0 0 0 0 0 0 0 0 0 0 0 0 0 0 0 0 0 0 0 0 0 0 0 0 0 0 1 1 1 0 0 0 0 1 2 3 2 1 0
0 0 0 0 0 0 0 0 0 0 0 0 0 0 0 0 0 0 0 0 0 0 0 0 0 0 0 0 0 0 0 1 1 1 0 0 0 1 2 2 2 2 1
0 0 0 0 0 0 0 0 0 0 0 0 0 0 0 0 0 0 0 0 0 0 0 0 0 0 0 0 0 0 0 0 1 1 1 0 0 0 1 1 2 2 1
0 0 0 0 0 0 0 0 0 0 0 0 0 0 0 0 0 0 0 0 0 0 0 0 0 0 0 0 0 0 0 0 0 1 1 0 0 0 0 1 1 1 0
0 0 0 0 0 0 0 0 0 0 0 0 0 0 0 0 0 0 0 0 0 0 0 0 0 0 0 0 0 0 0 0 0 0 0 0 0 0 0 0 0 0 1
0 0 0 0 0 0 0 0 0 0 0 0 0 0 0 0 0 0 0 0 0 0 0 0 0 0 0 0 0 0 0 0 0 0 0 0 0 0 0 0 0 0 1
0 0 0 0 0 0 0 0 0 0 0 0 0 0 0 0 0 0 0 0 0 0 0 0 0 0 0 0 0 0 0 0 0 0 0 0 0 0 0 0 0 0 1
0 0 0 0 0 0 0 0 0 0 0 0 0 0 0 0 0 0 0 0 0 0 0 0 0 0 0 0 0 0 0 0 0 0 0 0 0 0 0 0 0 0 0
0 0 0 0 0 0 0 0 0 0 0 0 0 0 0 0 0 0 0 0 0 0 0 0 0 0 0 0 0 0 0 0 0 0 0 0 0 0 0 0 0 0 1
0 0 0 0 0 0 0 0 0 0 0 0 0 0 0 0 0 0 0 0 0 0 0 0 0 0 0 0 0 0 0 0 0 0 0 0 0 0 0 0 0 1 2
0 0 0 0 0 0 0 0 0 0 0 0 0 0 0 0 0 0 0 0 0 0 0 0 0 0 0 0 0 0 0 0 0 0 0 0 0 0 0 0 0 1 2
0 0 0 0 0 0 0 0 0 0 0 0 0 0 0 0 0 0 0 0 0 0 0 0 0 0 0 0 0 0 0 0 0 0 0 0 0 0 0 0 0 0 1
0 0 0 0 0 0 0 0 0 0 0 0 0 0 0 0 0 0 0 0 0 0 0 0 0 0 0 0 0 0 0 0 0 0 0 0 0 0 0 0 0 0 0
0 0 0 0 0 0 0 0 0 0 0 0 0 0 0 0 0 0 0 0 0 0 0 0 0 0 0 0 0 0 0 0 0 0 0 0 0 0 0 0 0 0 0
0 0 0 0 0 0 0 0 0 0 0 0 0 0 0 0 0 0 0 0 0 0 0 0 0 0 0 0 0 0 0 0 0 0 0 0 0 0 0 0 0 0 0
0 0 0 0 0 0 0 0 0 0 0 0 0 0 0 0 0 0 0 0 0 0 0 0 0 0 0 0 0 0 0 0 0 0 0 0 0 0 0 0 0 0 0
0 0 0 0 0 0 0 0 0 0 0 0 0 0 0 0 0 0 0 0 0 0 0 0 0 0 0 0 0 0 0 0 0 0 0 0 0 0 0 0 0 0 0
0 0 0 0 0 0 0 0 0 0 0 0 0 0 0 0 0 0 0 0 0 0 0 0 0 0 0 0 0 0 0 0 0 0 0 0 0 0 0 0 0 0 0
0 0 0 0 0 0 0 0 0 0 0 0 0 0 0 0 0 0 0 0 0 0 0 0 0 0 0 0 0 0 0 0 0 0 0 0 0 0 0 0 0 0 0
0 0 0 0 0 0 0 0 0 0 0 0 0 0 0 0 0 0 0 0 0 0 0 0 0 0 0 0 0 0 0 0 0 0 0 0 0 0 0 0 0 0 0
0 0 0 0 0 0 0 0 0 0 0 0 0 0 0 0 0 0 0 0 0 0 0 0 0 0 0 0 0 0 0 0 0 0 0 0 0 0 0 0 0 0 0
0 0 0 0 0 0 0 0 0 0 0 0 0 0 0 0 0 0 0 0 0 0 0 0 0 0 0 0 0 0 0 0 0 0 0 0 0 0 0 0 0 0 0
0 0 0 0 0 0 0 0 0 0 0 0 0 0 0 0 0 0 0 0 0 0 0 0 0 0 0 0 0 0 0 0 0 0 0 0 0 0 0 0 0 0 0
0 0 0 0 0 0 0 0 0 0 0 0 0 0 0 0 0 0 0 0 0 0 0 0 0 0 0 0 0 0 0 0 0 0 0 0 0 0 0 0 0 0 0
0 0 0 0 0 0 0 0 0 0 0 0 0 0 0 0 0 0 0 0 0 0 0 0 0 0 0 0 0 0 0 0 0 0 0 0 0 0 0 0 0 0 0
0 0 0 0 0 0 0 0 0 0 0 0 0 0 0 0 0 0 0 0 0 0 0 0 0 0 0 0 0 0 0 0 0 0 0 0 0 0 0 0 0 0 0
Wind_Speed
3 3 3 3 3 3 3 3 4 5 5 6 6 6 6 6 5 5 4 10 11 11 10 10 10 10 10 10 10 10 9 10 9 8 9 8 8 7 7 7 7 7 7
3 3 3 3 3 3 3 3 4 4 4 4 5 6 5 5 5 5 5 7 11 11 11 10 10 10 10 9 9 9 9 8 9 8 8 8 8 7 7 6 6 6 6
4 3 3 3 2 2 3 4 4 4 4 4 5 5 5 5 5 5 5 4 5 9 11 11 11 10 10 9 9 9 8 8 8 8 8 8 7 7 6 6 6 5 5
4 4 3 2 2 2 3 3 3 4 4 4 4 4 4 4 5 5 5 5 4 5 8 12 11 11 10 10 9 9 8 8 8 8 8 7 7 6 5 5 4 5 5
4 4 3 2 2 3 3 3 3 3 3 4 3 3 3 3 3 4 5 5 5 5 4 8 11 11 11 10 10 9 9 8 8 8 8 7 7 6 4 4 4 3 4
4 4 3 3 3 3 3 3 3 3 3 3 3 3 3 3 3 3 3 4 4 5 5 5 5 7 11 10 9 9 8 8 8 7 7 7 6 6 5 4 3 3 3
4 4 4 3 3 3 3 3 3 4 2 2 2 2 3 3 3 3 3 3 4 4 4 5 4 4 4 10 9 9 8 8 7 7 7 7 7 6 6 5 4 4 4
4 4 4 4 3 3 4 3 3 2 1 1 2 2 1 2 2 3 2 2 3 3 4 5 4 4 3 3 6 9 8 8 7 6 7 7 7 7 7 6 6 5 5
4 4 5 4 4 4 4 4 3 4 3 1 1 2 2 2 1 1 1 2 2 2 2 2 4 4 4 3 3 6 8 8 7 7 7 7 7 8 7 7 7 6 6
4 3 4 5 5 4 4 4 3 3 4 2 1 1 1 2 2 1 1 1 2 2 2 2 2 3 3 3 4 7 9 8 7 7 7 7 8 8 8 8 8 7 7
3 3 4 4 4 4 4 4 4 3 3 3 2 1 1 1 1 2 2 2 2 1 1 1 1 1 2 2 2 5 8 8 8 7 7 7 8 9 9 9 9 8 8
3 3 3 4 4 4 4 4 4 4 3 3 3 2 2 2 2 2 2 2 2 2 2 1 1 1 1 1 3 7 8 8 8 8 8 8 9 9 10 10 10 10 9
3 5 4 4 4 4 4 4 4 4 4 4 4 3 2 2 2 2 2 1 1 2 1 1 1 1 1 1 2 7 7 8 8 8 9 9 9 10 10 11 11 11 10
5 5 5 4 4 4 4 4 3 4 4 4 4 4 3 2 3 3 3 2 1 2 2 2 1 2 1 1 3 6 4 8 8 8 9 9 9 10 10 11 11 11 11
4 5 5 5 4 4 4 5 4 4 4 4 4 4 3 3 3 3 3 3 3 2 3 2 2 2 1 1 4 2 3 7 9 9 9 9 9 10 10 10 11 11 11
4 5 5 5 5 5 5 5 4 4 4 4 3 4 3 3 2 2 3 2 3 3 3 2 2 2 2 3 5 3 3 8 9 9 9 9 10 9 10 10 11 11 12
4 5 5 5 5 5 5 4 4 5 5 4 4 5 4 4 3 3 3 3 3 3 4 3 2 2 2 3 4 3 3 3 4 8 9 9 9 9 10 11 11 11 12
4 4 5 5 5 5 5 5 5 5 5 6 5 5 5 4 4 4 3 4 3 3 4 4 3 2 3 3 3 3 4 4 3 8 9 9 9 10 11 11 11 11 11
3 3 4 5 5 5 5 5 6 5 5 5 5 6 6 5 5 4 4 4 3 3 3 4 4 2 2 2 2 3 4 3 4 6 8 8 9 10 11 11 11 11 11
3 4 4 4 4 4 5 5 5 5 5 5 5 5 6 6 7 6 5 5 4 4 3 4 4 3 3 2 2 3 4 3 4 4 5 6 8 10 10 11 12 12 11
2 3 3 3 3 4 4 5 5 5 5 5 4 5 5 7 9 7 5 5 5 5 4 4 4 3 3 3 3 3 4 3 3 3 3 3 4 4 5 8 10 11 11
1 2 3 3 4 3 5 7 5 5 5 5 5 5 5 6 8 9 9 8 8 6 6 5 5 5 5 4 3 3 3 3 4 2 2 4 3 4 4 3 9 11 11
1 2 2 3 4 4 7 7 7 4 4 4 4 4 4 4 6 4 6 8 8 10 9 6 6 6 5 5 4 4 4 4 4 3 2 4 3 4 4 5 11 11 10
2 2 2 2 3 4 6 6 6 3 3 4 4 5 5 4 5 5 5 5 5 5 7 5 5 6 5 5 5 5 4 4 3 3 3 4 3 4 4 4 10 10 10
1 1 2 2 2 3 5 6 5 2 3 4 4 4 5 5 8 9 5 4 4 4 6 8 9 8 8 8 6 3 3 3 3 3 2 2 3 4 4 4 6 9 9
2 2 2 2 3 3 5 6 5 2 3 3 3 4 6 6 8 8 5 5 5 4 3 4 5 5 4 4 6 4 4 3 2 3 2 2 3 3 4 3 3 4 5
Wind_Direction
87 80 72 64 62 62 68 66 65 63 60 55 54 57 54 48 43 36 26 40 49 54 58 59 59 58 57 58 57 54 52 53 56 57 59 59 59 61 63 65 62 62 62
104 96 85 74 66 64 72 77 74 72 65 62 55 50 50 47 45 40 32 30 40 48 53 55 56 56 55 55 54 54 51 50 52 53 53 55 53 57 60 60 59 58 55
109 105 97 86 76 76 80 81 74 73 70 63 53 45 46 45 46 41 37 35 28 36 47 51 51 50 49 48 46 47 47 47 48 49 48 48 47 51 54 54 53 53 50
115 111 105 94 89 89 87 86 79 78 67 62 53 41 39 39 44 44 43 39 36 31 35 45 45 45 43 41 39 40 41 43 43 44 41 38 38 39 42 45 42 39 35
125 121 115 109 104 96 89 92 78 88 82 66 58 48 40 39 35 46 47 43 43 40 35 35 37 38 39 38 35 34 34 34 35 36 34 30 29 26 25 31 28 24 17
130 127 124 121 116 106 91 92 95 81 90 81 67 48 37 36 40 45 45 44 46 44 40 38 31 25 29 32 30 28 27 26 28 28 26 21 18 14 9 9 10 7 9
139 134 131 129 130 123 119 118 113 98 80 80 79 50 32 40 50 41 37 46 48 41 41 38 32 27 15 19 20 22 19 18 18 17 13 10 6 358 355 351 348 348 349
150 144 141 146 143 130 123 125 123 120 107 76 104 110 48 8 19 28 27 46 43 35 36 31 29 25 18 10 4 13 12 10 6 5 4 2 358 355 346 341 338 336 332
155 148 152 151 148 146 152 157 153 144 149 134 80 133 147 197 309 342 3 32 33 35 25 19 24 13 12 7 349 360 3 360 359 355 353 352 349 346 347 339 338 338 335
157 151 161 157 156 156 161 173 167 164 155 162 145 58 119 144 156 279 306 340 2 2 0 11 1 359 4 355 351 356 357 354 351 346 343 343 342 336 335 335 331 331 331
167 164 172 165 166 167 170 176 176 173 170 171 167 157 119 91 140 169 246 286 315 301 309 311 310 332 346 345 335 341 349 346 341 337 335 334 330 329 326 327 324 324 324
180 178 178 177 177 174 180 185 184 183 183 177 175 175 173 172 182 179 202 252 277 283 293 274 258 291 313 329 334 343 341 339 334 330 328 325 323 321 322 321 321 317 314
192 190 184 186 188 185 183 180 184 191 188 186 190 194 194 199 181 179 176 218 273 290 281 263 244 260 293 317 321 335 334 333 327 323 319 320 321 322 320 317 315 316 312
195 188 185 186 188 185 184 180 186 196 192 194 202 198 198 209 194 187 177 172 244 278 261 257 253 238 264 295 304 330 326 323 320 319 318 319 320 318 316 315 313 315 313
186 182 186 184 188 187 185 181 189 195 192 197 201 201 202 213 199 196 191 183 181 229 258 239 244 244 271 290 301 316 306 308 313 315 316 315 314 312 312 311 310 309 308
185 181 187 188 190 189 188 187 188 193 193 200 199 198 207 208 195 196 195 197 196 204 243 235 236 253 279 291 295 306 296 308 310 308 308 308 307 306 307 306 305 305 304
187 186 189 190 194 191 189 191 189 187 193 198 200 202 211 200 196 197 197 201 210 205 236 260 247 253 249 268 288 289 286 286 288 299 302 302 301 302 303 302 303 302 301
193 192 189 192 198 197 193 193 194 195 196 201 203 204 213 206 202 199 200 208 215 213 217 250 260 250 248 250 262 275 288 288 283 293 297 297 298 300 300 299 300 299 299
195 194 189 196 201 202 200 202 198 200 204 206 204 204 208 200 208 207 205 209 215 224 216 229 252 254 256 253 264 280 278 277 283 289 293 294 297 300 300 300 300 298 298
193 193 198 201 203 205 205 206 206 203 203 209 210 209 209 206 208 207 210 208 207 216 214 221 240 251 253 248 242 267 284 277 283 291 290 296 300 304 303 300 298 296 295
203 199 197 200 204 206 207 205 209 206 204 206 210 214 219 220 218 217 213 204 201 208 214 221 233 248 249 239 242 248 269 285 286 276 287 293 297 294 294 298 298 293 292
201 199 206 202 207 221 224 222 218 208 202 204 210 212 221 225 229 233 236 232 221 214 216 220 232 234 242 240 242 246 261 274 283 268 280 289 280 279 283 280 290 294 296
198 208 219 213 218 226 232 230 229 213 200 204 205 206 217 222 228 224 236 244 246 248 241 230 228 231 233 231 229 244 247 254 262 264 271 282 283 281 282 290 294 295 297
219 222 227 229 231 235 238 234 226 209 199 209 212 209 210 215 223 223 221 227 235 242 246 242 230 232 231 225 220 228 237 256 271 267 253 266 276 276 286 286 290 290 297
254 246 239 231 238 250 240 232 228 201 207 216 221 216 213 213 229 233 223 222 236 247 255 255 252 246 246 242 232 214 214 233 264 267 237 235 267 289 287 280 283 289 297
248 256 264 244 239 248 240 233 224 210 215 222 224 225 228 226 230 231 215 207 224 238 240 253 259 260 251 244 247 225 211 222 244 256 227 228 263 295 295 277 279 285 289